EN

Hourly Weather Ozercy

Today, 2 March, Tuesday

Time Temperature Precipitation Wind Pressure Humidity
00:00 0°C° 0 mm 5 mps 754 mmHg 87%
01:00 0°C° 0 mm 4 mps 754 mmHg 88%
02:00 0°C° 0 mm 5 mps 754 mmHg 88%
03:00 -1°C° 0 mm 5 mps 753 mmHg 89%
04:00 -1°C° 0 mm 5 mps 753 mmHg 90%
05:00 -1°C° 0 mm 5 mps 752 mmHg 91%
06:00 -1°C° 0.6 mm 4 mps 752 mmHg 93%
07:00 -1°C° 0.6 mm 4 mps 752 mmHg 95%
08:00 -1°C° 0.6 mm 4 mps 752 mmHg 97%
09:00 -1°C° 0.4 mm 4 mps 752 mmHg 94%
10:00 0°C° 0.4 mm 4 mps 752 mmHg 92%
11:00 0°C° 0.4 mm 5 mps 752 mmHg 89%
12:00 0°C° 0 mm 5 mps 752 mmHg 84%
13:00 +1°C° 0 mm 5 mps 753 mmHg 78%
14:00 +2°C° 0 mm 6 mps 753 mmHg 72%
15:00 +1°C° 0 mm 5 mps 754 mmHg 74%
16:00 0°C° 0 mm 5 mps 754 mmHg 76%
17:00 0°C° 0 mm 5 mps 754 mmHg 79%
18:00 -1°C° 0 mm 4 mps 755 mmHg 81%
19:00 -1°C° 0 mm 4 mps 756 mmHg 82%
20:00 -2°C° 0 mm 4 mps 757 mmHg 84%
21:00 -2°C° 0 mm 4 mps 757 mmHg 85%
22:00 -2°C° 0 mm 4 mps 757 mmHg 86%
23:00 -3°C° 0 mm 4 mps 757 mmHg 87%

Tomorrow, 3 March, Wednesday

Time Temperature Precipitation Wind Pressure Humidity
00:00 -3°C° 0 mm 4 mps 757 mmHg 88%
01:00 -2°C° 0 mm 3 mps 758 mmHg 90%
02:00 -2°C° 0 mm 3 mps 758 mmHg 91%
03:00 -2°C° 0 mm 3 mps 758 mmHg 91%
04:00 -3°C° 0 mm 4 mps 757 mmHg 91%
05:00 -4°C° 0 mm 4 mps 757 mmHg 91%
06:00 -3°C° 0 mm 4 mps 757 mmHg 90%
07:00 -3°C° 0 mm 4 mps 757 mmHg 88%
08:00 -4°C° 0 mm 5 mps 757 mmHg 86%
09:00 -2°C° 0 mm 5 mps 756 mmHg 82%
10:00 -1°C° 0 mm 5 mps 756 mmHg 78%
11:00 0°C° 0 mm 5 mps 756 mmHg 74%
12:00 0°C° 0 mm 5 mps 755 mmHg 71%
13:00 +1°C° 0 mm 5 mps 755 mmHg 69%
14:00 +2°C° 0 mm 5 mps 754 mmHg 66%
15:00 +3°C° 0 mm 4 mps 753 mmHg 73%
16:00 +1°C° 0 mm 4 mps 753 mmHg 80%
17:00 +1°C° 0 mm 4 mps 752 mmHg 87%
18:00 0°C° 0 mm 4 mps 751 mmHg 84%
19:00 0°C° 0 mm 4 mps 751 mmHg 81%
20:00 0°C° 0 mm 4 mps 750 mmHg 78%
21:00 0°C° 0 mm 4 mps 749 mmHg 80%
22:00 0°C° 0 mm 5 mps 748 mmHg 81%
23:00 -1°C° 0 mm 5 mps 747 mmHg 82%

Day after tomorrow, 4 March, Thursday

Time Temperature Precipitation Wind Pressure Humidity
00:00 -1°C° 0 mm 5 mps 747 mmHg 85%
01:00 -1°C° 0 mm 4 mps 746 mmHg 88%
02:00 -1°C° 0 mm 4 mps 746 mmHg 91%
03:00 -1°C° 0.1 mm 4 mps 745 mmHg 93%
04:00 -1°C° 0.1 mm 4 mps 745 mmHg 95%
05:00 -1°C° 0.1 mm 4 mps 744 mmHg 97%
06:00 -1°C° 0.6 mm 3 mps 744 mmHg 97%
07:00 -1°C° 0.6 mm 3 mps 744 mmHg 97%
08:00 -1°C° 0.6 mm 3 mps 744 mmHg 97%
09:00 -1°C° 0.2 mm 3 mps 743 mmHg 88%
10:00 -1°C° 0.2 mm 3 mps 743 mmHg 79%
11:00 -1°C° 0.2 mm 3 mps 743 mmHg 71%
12:00 0°C° 0 mm 3 mps 743 mmHg 66%
13:00 0°C° 0 mm 3 mps 744 mmHg 62%
14:00 0°C° 0 mm 3 mps 744 mmHg 57%
15:00 -1°C° 0 mm 3 mps 744 mmHg 61%
16:00 -1°C° 0 mm 3 mps 744 mmHg 66%
17:00 -2°C° 0 mm 2 mps 744 mmHg 70%
18:00 -4°C° 0 mm 3 mps 745 mmHg 73%
19:00 -4°C° 0 mm 3 mps 745 mmHg 76%
20:00 -5°C° 0 mm 3 mps 746 mmHg 78%
21:00 -5°C° 0 mm 3 mps 746 mmHg 78%
22:00 -6°C° 0 mm 3 mps 747 mmHg 78%
23:00 -6°C° 0 mm 3 mps 747 mmHg 78%

5 March, Friday

Time Temperature Precipitation Wind Pressure Humidity
00:00 -6°C° 0 mm 3 mps 747 mmHg 78%
01:00 -6°C° 0 mm 3 mps 747 mmHg 78%
02:00 -5°C° 0 mm 2 mps 748 mmHg 78%
03:00 -6°C° 0 mm 2 mps 748 mmHg 78%
04:00 -6°C° 0 mm 2 mps 748 mmHg 78%
05:00 -7°C° 0 mm 3 mps 748 mmHg 78%
06:00 -6°C° 0 mm 2 mps 748 mmHg 76%
07:00 -6°C° 0 mm 2 mps 749 mmHg 75%
08:00 -6°C° 0 mm 2 mps 749 mmHg 73%
09:00 -6°C° 0 mm 3 mps 749 mmHg 68%
10:00 -6°C° 0 mm 3 mps 750 mmHg 63%
11:00 -5°C° 0 mm 3 mps 750 mmHg 58%
12:00 -5°C° 0 mm 3 mps 750 mmHg 56%
13:00 -5°C° 0 mm 3 mps 750 mmHg 53%
14:00 -5°C° 0 mm 3 mps 751 mmHg 51%
15:00 -5°C° 0 mm 3 mps 751 mmHg 53%
16:00 -6°C° 0 mm 3 mps 751 mmHg 55%
17:00 -6°C° 0 mm 3 mps 751 mmHg 57%
18:00 -6°C° 0 mm 2 mps 752 mmHg 62%
19:00 -6°C° 0 mm 2 mps 752 mmHg 66%
20:00 -6°C° 0 mm 2 mps 753 mmHg 71%
21:00 -7°C° 0 mm 2 mps 753 mmHg 74%
22:00 -8°C° 0 mm 3 mps 754 mmHg 77%
23:00 -8°C° 0 mm 3 mps 754 mmHg 79%

6 March, Saturday

Time Temperature Precipitation Wind Pressure Humidity
00:00 -8°C° 0 mm 3 mps 754 mmHg 78%
01:00 -9°C° 0 mm 3 mps 755 mmHg 77%
02:00 -9°C° 0 mm 3 mps 755 mmHg 75%
03:00 -9°C° 0 mm 2 mps 755 mmHg 76%
04:00 -9°C° 0 mm 2 mps 755 mmHg 76%
05:00 -8°C° 0 mm 1 mps 756 mmHg 76%
06:00 -9°C° 0 mm 2 mps 756 mmHg 75%
07:00 -9°C° 0 mm 2 mps 756 mmHg 74%
08:00 -10°C° 0 mm 3 mps 756 mmHg 73%
09:00 -9°C° 0 mm 3 mps 756 mmHg 68%
10:00 -8°C° 0 mm 3 mps 755 mmHg 63%
11:00 -8°C° 0 mm 4 mps 755 mmHg 58%
12:00 -7°C° 0 mm 4 mps 754 mmHg 55%
13:00 -6°C° 0 mm 5 mps 754 mmHg 52%
14:00 -6°C° 0 mm 5 mps 753 mmHg 49%
15:00 -6°C° 0 mm 6 mps 752 mmHg 54%
16:00 -6°C° 0 mm 6 mps 751 mmHg 59%
17:00 -8°C° 0 mm 7 mps 749 mmHg 65%
18:00 -7°C° 0.3 mm 7 mps 748 mmHg 72%
19:00 -7°C° 0.3 mm 8 mps 747 mmHg 79%
20:00 -7°C° 0.3 mm 8 mps 745 mmHg 87%
21:00 -7°C° 0.4 mm 8 mps 744 mmHg 88%
22:00 -6°C° 0.4 mm 8 mps 743 mmHg 89%
23:00 -6°C° 0.4 mm 8 mps 742 mmHg 89%

7 March, Sunday

Time Temperature Precipitation Wind Pressure Humidity
00:00 -6°C° 0.3 mm 8 mps 741 mmHg 90%
01:00 -5°C° 0.3 mm 8 mps 739 mmHg 91%
02:00 -5°C° 0.3 mm 8 mps 738 mmHg 92%
03:00 -4°C° 0.4 mm 8 mps 737 mmHg 92%
04:00 -4°C° 0.4 mm 8 mps 736 mmHg 93%
05:00 -4°C° 0.4 mm 8 mps 735 mmHg 93%
06:00 -5°C° 0.6 mm 8 mps 736 mmHg 84%
07:00 -6°C° 0.6 mm 8 mps 736 mmHg 75%
08:00 -7°C° 0.6 mm 8 mps 737 mmHg 66%
09:00 -8°C° 0 mm 8 mps 737 mmHg 61%
10:00 -10°C° 0 mm 8 mps 738 mmHg 56%
11:00 -11°C° 0 mm 8 mps 738 mmHg 51%
12:00 -11°C° 0 mm 8 mps 739 mmHg 52%
13:00 -11°C° 0 mm 7 mps 739 mmHg 52%
14:00 -11°C° 0 mm 7 mps 739 mmHg 53%
15:00 -11°C° 0 mm 7 mps 740 mmHg 56%
16:00 -11°C° 0 mm 7 mps 740 mmHg 60%
17:00 -10°C° 0 mm 6 mps 740 mmHg 63%
18:00 -11°C° 0 mm 6 mps 741 mmHg 69%
19:00 -11°C° 0 mm 6 mps 741 mmHg 75%
20:00 -11°C° 0 mm 6 mps 741 mmHg 81%
21:00 -12°C° 0.1 mm 6 mps 742 mmHg 81%
22:00 -12°C° 0.1 mm 5 mps 743 mmHg 81%
23:00 -13°C° 0.1 mm 5 mps 743 mmHg 81%
Show more

We Need Your Consent

Meteoprog and our Service Providers may store and access personal data such as cookies, device identifiers or other similar technologies on your device and process such data to personalise content and ads, as well as provide social media features and to analyse the traffic.

  • Store and/or access information on your device

    Cookies, device identifiers or other information can be stored or accessed on your device for the purposes indicated above.

  • Personalised ads and content, ad and content measurement, audience insights, and products development

    Ads and content can be personalised based on a profile. More data can be added to better personalise ads and content. Ad and content performance can be measured. Insights about the audience who saw the ads and content can be derived. Such data can be used to develop or improve user’s experience, systems and software.

By clicking ‘I Agree’ you will allow the use of indicated cookies, device identifiers, web beacons or other similar technologies. Your settings can be changed in the browser on your device.

For certain purposes, legitimate interests may be relied on, rather than consent. You can read more about this in our Privacy and Cookie Policy.